Flag for Puerto Rico Weather past 2 weeks in Caguas, Puerto Rico

78 °F

Passing clouds.

Feels Like: 81 °F
Forecast: 73 / 86 °F
Wind: No wind

Location: Luis Munoz Marin

Current Time: Nov 30, 2015 at 6:22:46 AM

Latest Report: Nov 30, 2015 at 5:56 AM

Visibility: 10 mi

Pressure: 29.87 "Hg

Humidity: 82%

Dew point: 72 °F

Location of CaguasLocation

Historic Weather in Caguas — Graph


Caguas temperature yesterday

Maximum temperature yesterday: 83 °F (at 2:56 PM)
Minimum temperature yesterday: 72 °F (at 3:56 AM)
Average temperature yesterday: 77 °F

Past Weeks' High & Low Weather Summary

High89 °F (Nov 24, 1:56 PM)97% (Nov 29, 6:56 AM)30.08 "Hg (Nov 29, 6:56 AM)
Low72 °F (Nov 29, 3:56 AM)46% (Nov 24, 1:56 PM)29.84 "Hg (Nov 24, 2:56 PM)
Average80 °F77%29.93 "Hg
* Reported Nov 15 4:56 AM — Nov 30 4:56 AM, Caguas, Weather by CustomWeather, © 2015

Note: Actual official high and low records may vary slightly from our data, if they occured in-between our weather recording intervals... More about our weather records


Caguas weather history for previous 24 hours

Time TempWeatherWind HumidityBarometerVisibility
4:56 AM
Mon, Nov 30
77 °FPassing clouds.No wind85%29.85 "Hg10 mi
3:56 AM77 °FPassing clouds.No wind85%29.85 "Hg10 mi
2:56 AM78 °FPassing clouds.5 mph82%29.86 "Hg10 mi
1:56 AM77 °FPassing clouds.No wind85%29.88 "Hg10 mi
12:56 AM77 °FPassing clouds.No wind85%29.91 "Hg10 mi
11:56 PM
Sun, Nov 29
77 °FPassing clouds.6 mph82%29.91 "Hg10 mi
10:56 PM78 °FPassing clouds.5 mph79%29.93 "Hg10 mi
9:56 PM78 °FPassing clouds.No wind82%29.94 "Hg10 mi
8:56 PM79 °FPassing clouds.No wind79%29.95 "Hg10 mi
7:56 PM80 °FPassing clouds.No wind79%29.93 "Hg10 mi
6:56 PM80 °FPartly cloudy.No wind81%29.93 "Hg10 mi
5:56 PM79 °FBroken clouds.6 mph84%29.90 "Hg10 mi
4:56 PM82 °FBroken clouds.No wind74%29.89 "Hg10 mi
3:56 PM83 °FBroken clouds.5 mph74%29.88 "Hg10 mi
2:56 PM83 °FBroken clouds.7 mph72%29.87 "Hg10 mi
1:56 PM82 °FBroken clouds.6 mph79%29.87 "Hg10 mi
12:56 PM79 °FBroken clouds.No wind84%29.90 "Hg10 mi
11:56 AM77 °FMore clouds than sun.No wind90%29.93 "Hg10 mi
10:56 AM76 °FCloudy.No wind91%29.95 "Hg10 mi
9:56 AM75 °FLight rain. More clouds than sun.3 mph94%29.95 "Hg10 mi
8:56 AM74 °FLight rain. More clouds than sun.No wind91%29.97 "Hg10 mi
7:56 AM73 °FMore clouds than sun.No wind97%29.95 "Hg10 mi
6:56 AM72 °FPartly cloudy.No wind97%29.94 "Hg10 mi
Weather by CustomWeather, © 2015

See weather overviewHow to use our weather pages